Home > Weather > Buffalo > Past weeks

Flag for USA Past Weather in Buffalo, New York, USA — Yesterday and Last 2 Weeks

Now
63 °F

Passing clouds.


Feels Like: 63 °F
Forecast: 60 / 73 °F
Wind: 14 mph from Southwest

Location: Greater Buffalo International Airport

Current Time: May 24, 2016 at 11:22:33 PM

Latest Report: May 24, 2016 at 10:54 PM


Visibility: 10 mi

Pressure: 30.01 "Hg

Humidity: 50%

Dew Point: 44 °F

Location of BuffaloLocation

Past Weather in Buffalo — Graph

°F

Buffalo Temperature Yesterday

Maximum temperature yesterday: 78 °F (at 3:54 PM)
Minimum temperature yesterday: 49 °F (at 4:54 AM)
Average temperature yesterday: 63 °F

High & Low Weather Summary for the Past Weeks

 TemperatureHumidityPressure
High80 °F (May 12, 3:54 PM)97% (May 13, 6:54 AM)30.30 "Hg (May 13, 6:54 AM)
Low38 °F (May 15, 4:54 AM)22% (May 10, 2:54 PM)29.54 "Hg (May 14, 11:54 AM)
Average57 °F56%30.03 "Hg
* Reported May 9 9:54 PM — May 24 9:54 PM, Buffalo, Weather by CustomWeather, © 2016

Note: Actual official high and low records may vary slightly from our data, if they occured in-between our weather recording intervals... More about our weather records

Advertising

Buffalo Weather History for the Previous 24 Hours

Scroll right to see more
 ConditionsComfort  
Time TempWeatherWind HumidityBarometerVisibility
9:54 PM
Tue, May 24
62 °FPassing clouds.12 mph54%30.01 "Hg10 mi
8:54 PM62 °FPassing clouds.12 mph52%29.99 "Hg10 mi
7:54 PM66 °FScattered clouds.14 mph45%29.99 "Hg10 mi
6:54 PM69 °FPassing clouds.14 mph41%29.98 "Hg10 mi
5:54 PM71 °FPassing clouds.17 mph38%29.98 "Hg10 mi
4:54 PM72 °FPassing clouds.17 mph37%29.99 "Hg10 mi
3:54 PM71 °FPassing clouds.21 mph39%30.00 "Hg10 mi
2:54 PM71 °FPassing clouds.16 mph44%30.01 "Hg10 mi
1:54 PM70 °FPassing clouds.16 mph46%30.01 "Hg10 mi
12:54 PM68 °FPassing clouds.18 mph47%30.02 "Hg10 mi
11:54 AM68 °FPassing clouds.14 mph45%30.02 "Hg10 mi
10:54 AM67 °FPassing clouds.14 mph51%30.02 "Hg10 mi
9:54 AM66 °FPassing clouds.13 mph50%30.03 "Hg10 mi
8:54 AM63 °FPassing clouds.10 mph56%30.02 "Hg10 mi
7:54 AM60 °FPassing clouds.12 mph65%30.01 "Hg10 mi
6:54 AM57 °FSunny.8 mph72%30.00 "Hg10 mi
5:54 AM55 °FClear.8 mph77%29.99 "Hg10 mi
4:54 AM55 °FClear.7 mph80%29.98 "Hg10 mi
3:54 AM56 °FClear.8 mph77%29.98 "Hg10 mi
2:54 AM57 °FClear.7 mph72%29.97 "Hg10 mi
1:54 AM58 °FClear.12 mph67%29.98 "Hg10 mi
12:54 AM58 °FClear.9 mph65%29.98 "Hg10 mi
11:54 PM
Mon, May 23
59 °FClear.10 mph67%29.98 "Hg10 mi
Weather by CustomWeather, © 2016

See weather overviewHow to use our weather pages